When you browse on this site, cookies collect data to enhance your experience and personalize the content and advertising you see.
Visit our Privacy Policy to learn more. By continuing to use the site, you agree to this use of cookies and data.
  • In Slovakia
  • List of Countries
  • For 7 days
  • Water Temperature
  • Satellite Maps
  • Weather Map
  • Weather Widgets
  • user-avatar
    Login

    Hourly Weather Demirar

    Today, 16 June, Sunday

    Time Temperature Precipitation Wind Pressure Humidity
    00:00 +18°C° 0 mm 3 mps 674 mmHg 59%
    01:00 +18°C° 0 mm 3 mps 674 mmHg 59%
    02:00 +17°C° 0 mm 2 mps 674 mmHg 59%
    03:00 +17°C° 0 mm 2 mps 674 mmHg 59%
    04:00 +18°C° 0 mm 2 mps 674 mmHg 61%
    05:00 +20°C° 0 mm 2 mps 674 mmHg 63%
    06:00 +21°C° 0 mm 2 mps 674 mmHg 65%
    07:00 +23°C° 0 mm 2 mps 675 mmHg 61%
    08:00 +25°C° 0 mm 1 mps 675 mmHg 57%
    09:00 +26°C° 0 mm 1 mps 675 mmHg 53%
    10:00 +27°C° 0.4 mm 2 mps 675 mmHg 53%
    11:00 +27°C° 0.4 mm 2 mps 675 mmHg 54%
    12:00 +28°C° 0.4 mm 3 mps 674 mmHg 55%
    13:00 +27°C° 0.6 mm 2 mps 674 mmHg 56%
    14:00 +27°C° 0.6 mm 2 mps 674 mmHg 56%
    15:00 +27°C° 0.6 mm 2 mps 673 mmHg 57%
    16:00 +26°C° 0.4 mm 2 mps 673 mmHg 63%
    17:00 +25°C° 0.4 mm 1 mps 673 mmHg 68%
    18:00 +24°C° 0.4 mm 1 mps 673 mmHg 74%
    19:00 +23°C° 0 mm 1 mps 673 mmHg 73%
    20:00 +20°C° 0 mm 2 mps 672 mmHg 73%
    21:00 +19°C° 0 mm 2 mps 672 mmHg 73%
    22:00 +19°C° 0 mm 2 mps 672 mmHg 69%
    23:00 +19°C° 0 mm 2 mps 672 mmHg 65%

    Tomorrow, 17 June, Monday

    Time Temperature Precipitation Wind Pressure Humidity
    00:00 +18°C° 0 mm 2 mps 672 mmHg 61%
    01:00 +18°C° 0 mm 2 mps 672 mmHg 61%
    02:00 +18°C° 0 mm 3 mps 672 mmHg 62%
    03:00 +18°C° 0 mm 3 mps 672 mmHg 63%
    04:00 +19°C° 0 mm 2 mps 672 mmHg 64%
    05:00 +21°C° 0 mm 2 mps 672 mmHg 64%
    06:00 +23°C° 0 mm 2 mps 673 mmHg 65%
    07:00 +24°C° 0.1 mm 2 mps 673 mmHg 63%
    08:00 +25°C° 0.1 mm 2 mps 674 mmHg 60%
    09:00 +27°C° 0.1 mm 2 mps 674 mmHg 57%
    10:00 +27°C° 0.8 mm 2 mps 674 mmHg 58%
    11:00 +27°C° 0.8 mm 2 mps 674 mmHg 59%
    12:00 +27°C° 0.8 mm 2 mps 674 mmHg 60%
    13:00 +27°C° 1.2 mm 3 mps 673 mmHg 61%
    14:00 +27°C° 1.2 mm 3 mps 673 mmHg 62%
    15:00 +27°C° 1.2 mm 3 mps 673 mmHg 63%
    16:00 +26°C° 1.1 mm 2 mps 673 mmHg 68%
    17:00 +25°C° 1.1 mm 2 mps 673 mmHg 72%
    18:00 +24°C° 1.1 mm 2 mps 672 mmHg 77%
    19:00 +23°C° 0.4 mm 2 mps 673 mmHg 78%
    20:00 +21°C° 0.4 mm 2 mps 673 mmHg 80%
    21:00 +19°C° 0.4 mm 2 mps 673 mmHg 81%
    22:00 +20°C° 0.1 mm 2 mps 673 mmHg 79%
    23:00 +21°C° 0.1 mm 1 mps 673 mmHg 76%

    Day after tomorrow, 18 June, Tuesday

    Time Temperature Precipitation Wind Pressure Humidity
    00:00 +21°C° 0.1 mm 1 mps 673 mmHg 74%
    01:00 +20°C° 0.1 mm 1 mps 673 mmHg 74%
    02:00 +20°C° 0.1 mm 1 mps 673 mmHg 74%
    03:00 +19°C° 0.1 mm 1 mps 673 mmHg 74%
    04:00 +20°C° 0 mm 1 mps 673 mmHg 74%
    05:00 +21°C° 0 mm 1 mps 673 mmHg 73%
    06:00 +22°C° 0 mm 1 mps 674 mmHg 73%
    07:00 +23°C° 0.3 mm 1 mps 674 mmHg 71%
    08:00 +24°C° 0.3 mm 2 mps 674 mmHg 69%
    09:00 +25°C° 0.3 mm 2 mps 675 mmHg 67%
    10:00 +25°C° 0.8 mm 2 mps 675 mmHg 66%
    11:00 +25°C° 0.8 mm 2 mps 675 mmHg 66%
    12:00 +26°C° 0.8 mm 2 mps 675 mmHg 66%
    13:00 +25°C° 0.9 mm 2 mps 674 mmHg 67%
    14:00 +25°C° 0.9 mm 2 mps 674 mmHg 69%
    15:00 +25°C° 0.9 mm 2 mps 674 mmHg 71%
    16:00 +24°C° 0.9 mm 2 mps 674 mmHg 74%
    17:00 +23°C° 0.9 mm 2 mps 673 mmHg 78%
    18:00 +22°C° 0.9 mm 1 mps 673 mmHg 82%
    19:00 +21°C° 0.7 mm 1 mps 673 mmHg 84%
    20:00 +20°C° 0.7 mm 1 mps 673 mmHg 86%
    21:00 +19°C° 0.7 mm 1 mps 673 mmHg 88%
    22:00 +19°C° 0.3 mm 1 mps 674 mmHg 87%
    23:00 +19°C° 0.3 mm 1 mps 674 mmHg 86%

    19 June, Wednesday

    Time Temperature Precipitation Wind Pressure Humidity
    00:00 +19°C° 0.3 mm 1 mps 674 mmHg 85%
    01:00 +19°C° 0.2 mm 1 mps 673 mmHg 85%
    02:00 +19°C° 0.2 mm 1 mps 673 mmHg 84%
    03:00 +19°C° 0.2 mm 1 mps 673 mmHg 84%
    04:00 +20°C° 0 mm 1 mps 673 mmHg 82%
    05:00 +20°C° 0 mm 1 mps 674 mmHg 80%
    06:00 +21°C° 0 mm 1 mps 674 mmHg 78%
    07:00 +22°C° 0.1 mm 1 mps 674 mmHg 74%
    08:00 +23°C° 0.1 mm 1 mps 674 mmHg 70%
    09:00 +24°C° 0.1 mm 2 mps 674 mmHg 66%
    10:00 +24°C° 0.5 mm 2 mps 674 mmHg 67%
    11:00 +24°C° 0.5 mm 2 mps 674 mmHg 67%
    12:00 +25°C° 0.5 mm 3 mps 674 mmHg 67%
    13:00 +24°C° 0.7 mm 2 mps 674 mmHg 68%
    14:00 +24°C° 0.7 mm 2 mps 674 mmHg 70%
    15:00 +24°C° 0.7 mm 2 mps 673 mmHg 71%
    16:00 +23°C° 0.3 mm 2 mps 673 mmHg 73%
    17:00 +23°C° 0.3 mm 1 mps 673 mmHg 74%
    18:00 +22°C° 0.3 mm 1 mps 673 mmHg 76%
    19:00 +21°C° 0.1 mm 1 mps 673 mmHg 77%
    20:00 +20°C° 0.1 mm 1 mps 673 mmHg 79%
    21:00 +19°C° 0.1 mm 1 mps 673 mmHg 81%
    22:00 +19°C° 0 mm 1 mps 673 mmHg 80%
    23:00 +19°C° 0 mm 1 mps 673 mmHg 79%

    20 June, Thursday

    Time Temperature Precipitation Wind Pressure Humidity
    00:00 +17°C° 0 mm 2 mps 673 mmHg 79%
    01:00 +17°C° 0 mm 2 mps 673 mmHg 78%
    02:00 +17°C° 0 mm 2 mps 673 mmHg 77%
    03:00 +17°C° 0 mm 2 mps 673 mmHg 76%
    04:00 +19°C° 0 mm 1 mps 673 mmHg 74%
    05:00 +20°C° 0 mm 1 mps 673 mmHg 72%
    06:00 +21°C° 0 mm 1 mps 674 mmHg 71%
    07:00 +23°C° 0.1 mm 1 mps 674 mmHg 68%
    08:00 +24°C° 0.1 mm 1 mps 674 mmHg 66%
    09:00 +25°C° 0.1 mm 2 mps 674 mmHg 64%
    10:00 +25°C° 0.5 mm 2 mps 674 mmHg 63%
    11:00 +26°C° 0.5 mm 2 mps 674 mmHg 63%
    12:00 +26°C° 0.5 mm 3 mps 674 mmHg 62%
    13:00 +26°C° 0.7 mm 3 mps 674 mmHg 64%
    14:00 +25°C° 0.7 mm 3 mps 674 mmHg 66%
    15:00 +25°C° 0.7 mm 3 mps 673 mmHg 68%
    16:00 +24°C° 0.3 mm 2 mps 673 mmHg 71%
    17:00 +23°C° 0.3 mm 2 mps 673 mmHg 73%
    18:00 +22°C° 0.3 mm 1 mps 673 mmHg 76%
    19:00 +21°C° 0 mm 1 mps 673 mmHg 77%
    20:00 +20°C° 0 mm 1 mps 673 mmHg 79%
    21:00 +19°C° 0 mm 1 mps 673 mmHg 81%
    22:00 +18°C° 0 mm 1 mps 673 mmHg 80%
    23:00 +18°C° 0 mm 1 mps 673 mmHg 80%

    21 June, Friday

    Time Temperature Precipitation Wind Pressure Humidity
    00:00 +18°C° 0 mm 1 mps 673 mmHg 80%
    01:00 +18°C° 0 mm 1 mps 673 mmHg 80%
    02:00 +18°C° 0 mm 1 mps 673 mmHg 79%
    03:00 +17°C° 0 mm 2 mps 673 mmHg 79%
    04:00 +19°C° 0 mm 1 mps 673 mmHg 78%
    05:00 +20°C° 0 mm 1 mps 674 mmHg 77%
    06:00 +20°C° 0 mm 1 mps 674 mmHg 75%
    07:00 +21°C° 0.1 mm 1 mps 674 mmHg 73%
    08:00 +22°C° 0.1 mm 1 mps 675 mmHg 70%
    09:00 +22°C° 0.1 mm 1 mps 675 mmHg 67%
    10:00 +21°C° 1.8 mm 1 mps 675 mmHg 72%
    11:00 +19°C° 1.8 mm 2 mps 675 mmHg 78%
    12:00 +18°C° 1.8 mm 2 mps 675 mmHg 83%
    13:00 +19°C° 1.7 mm 2 mps 675 mmHg 81%
    14:00 +21°C° 1.7 mm 1 mps 675 mmHg 78%
    15:00 +21°C° 1.7 mm 1 mps 675 mmHg 75%
    16:00 +21°C° 0 mm 1 mps 675 mmHg 75%
    17:00 +22°C° 0 mm 1 mps 675 mmHg 75%
    18:00 +21°C° 0 mm 2 mps 675 mmHg 75%
    19:00 +20°C° 0 mm 2 mps 675 mmHg 76%
    20:00 +19°C° 0 mm 2 mps 675 mmHg 77%
    21:00 +18°C° 0 mm 2 mps 675 mmHg 78%
    22:00 +18°C° 0 mm 2 mps 675 mmHg 76%
    23:00 +18°C° 0 mm 2 mps 675 mmHg 73%
    Show more